Location: Arpaise
(41.0333°N, 14.7333°E)
Time: 16:09:32
(UTC+00:00)

Cosmos 962 Rocket - Pass Details

Date: 05 July 2020
Orbit: 950 x 1000 km, 82.9° (Epoch: 10 August)

Event Time Altitude Azimuth Distance (km) Brightness Sun altitude
Exits shadow 22:12:15 55° 191° (S) 1,179 4.5 -25.1°
Maximum altitude 22:13:48 87° 277° (W) 1,000 4.4 -25.2°
Drops below altitude 10° 22:20:12 10° 7° (N) 2,775 7.8 -25.4°
Sets 22:22:45 0° 8° (N) 3,730 8.7 -25.5°
